Weather History for KCGS - February, 2014

Change the Weather History Date:

Friday, February 14, 2014

  Actual Average Record
Temperature  
Mean Temperature 40 °F -  
Max Temperature 50 °F 44 °F 70 °F (1951)
Min Temperature 31 °F 25 °F -5 °F (1979)
Degree Days  
Heating Degree Days 24    
Moisture  
Dew Point 26 °F    
Average Humidity 60    
Maximum Humidity 94    
Minimum Humidity 33    
Precipitation  
Precipitation 0.00 in - - ()
Sea Level Pressure  
Sea Level Pressure 29.59 in    
Wind  
Wind Speed 8 mph (West)    
Max Wind Speed 17 mph    
Max Gust Speed 26 mph    
Visibility 10 miles    
Events      
Averages and records for this station are not official NWS values.
T = Trace of Precipitation, MM = Missing Value Source: NWS Daily Summary

Daily Weather History Graph

Daily Weather History Graph

Search for Another Location

Airport or City:

Trip Planner

Search our weather history database for the weather conditions in past years. The results will help you decide how hot, cold, wet, or windy it might be!

Date:

Astronomy

Feb. 14, 2014 Rise Set
Actual Time 7:00 AM EST 5:43 PM EST
Civil Twilight 6:32 AM EST 6:11 PM EST
Nautical Twilight 6:01 AM EST 6:42 PM EST
Astronomical Twilight 5:30 AM EST 7:13 PM EST
Moon 5:45 PM EST (2/14) 6:26 AM EST (2/14)
Length of Visible Light 11h 38m
Length of Day
10h 43m
Full, 100% of the Moon is Illuminated
Feb 14
Full
Feb 14
Full
Feb 22
Last Quarter
Mar 1
New
Mar 8
First Quarter

Hourly Weather History & Observations

Time (EST) Temp. Windchill Dew Point Humidity Pressure Visibility Wind Dir Wind Speed Gust Speed Precip Events Conditions
12:00 AM 38.1 °F 29.1 °F 31.8 °F 78% 29.33 in 10.0 mi WNW 16.1 mph 26.5 mph N/A   Scattered Clouds
12:20 AM 38.3 °F 29.7 °F 31.1 °F 75% 29.34 in 10.0 mi WNW 15.0 mph 24.2 mph N/A   Clear
12:40 AM 38.5 °F 30.7 °F 30.6 °F 73% 29.35 in 10.0 mi WNW 12.7 mph 24.2 mph N/A   Clear
1:00 AM 38.3 °F 30.9 °F 30.2 °F 73% 29.37 in 10.0 mi WNW 11.5 mph 20.7 mph N/A   Clear
1:20 AM 38.3 °F 30.1 °F 29.3 °F 70% 29.38 in 10.0 mi WNW 13.8 mph 21.9 mph N/A   Clear
1:40 AM 37.9 °F 28.9 °F 28.4 °F 69% 29.40 in 10.0 mi WNW 16.1 mph 23.0 mph N/A   Clear
2:00 AM 37.6 °F 28.8 °F 27.1 °F 66% 29.42 in 10.0 mi WNW 15.0 mph 25.3 mph N/A   Clear
2:20 AM 37.4 °F 27.8 °F 25.9 °F 63% 29.43 in 10.0 mi WNW 17.3 mph 25.3 mph N/A   Clear
2:40 AM 37.0 °F 28.9 °F 25.3 °F 63% 29.44 in 10.0 mi WNW 12.7 mph 16.1 mph N/A   Clear
3:00 AM 36.9 °F 29.1 °F 25.2 °F 63% 29.45 in 10.0 mi West 11.5 mph 17.3 mph N/A   Clear
3:20 AM 36.7 °F 29.9 °F 25.5 °F 64% 29.46 in 10.0 mi WNW 9.2 mph 18.4 mph N/A   Clear
3:40 AM 36.7 °F 29.9 °F 24.8 °F 62% 29.47 in 10.0 mi West 9.2 mph - N/A   Clear
4:00 AM 36.9 °F 30.7 °F 23.9 °F 59% 29.47 in 10.0 mi WNW 8.1 mph - N/A   Clear
4:20 AM 37.0 °F 30.4 °F 22.5 °F 56% 29.47 in 10.0 mi WNW 9.2 mph 20.7 mph N/A   Clear
4:40 AM 37.0 °F 31.6 °F 21.0 °F 52% 29.48 in 10.0 mi WNW 6.9 mph - N/A   Clear
5:00 AM 37.4 °F 30.3 °F 19.4 °F 48% 29.49 in 10.0 mi WNW 10.4 mph - N/A   Clear
5:20 AM 37.9 °F 32.7 °F 18.0 °F 45% 29.50 in 10.0 mi West 6.9 mph 17.3 mph N/A   Clear
5:35 AM 37.9 °F 32.7 °F 18.3 °F 45% 29.52 in 10.0 mi West 6.9 mph - N/A   Clear
6:00 AM 38.3 °F 33.2 °F 18.0 °F 44% 29.52 in 10.0 mi West 6.9 mph 17.3 mph N/A   Clear
6:20 AM 37.8 °F 35.3 °F 18.5 °F 46% 29.53 in 10.0 mi WSW 3.5 mph - N/A   Scattered Clouds
6:40 AM 36.9 °F 33.1 °F 19.0 °F 49% 29.54 in 10.0 mi SW 4.6 mph - N/A   Scattered Clouds
7:00 AM 36.3 °F 33.7 °F 19.6 °F 51% 29.55 in 10.0 mi WSW 3.5 mph - N/A   Mostly Cloudy
7:20 AM 36.0 °F 33.3 °F 20.3 °F 53% 29.57 in 10.0 mi WSW 3.5 mph - N/A   Overcast
7:40 AM 36.5 °F - 20.1 °F 52% 29.58 in 10.0 mi Calm Calm - N/A   Mostly Cloudy
8:00 AM 37.0 °F - 20.3 °F 51% 29.59 in 10.0 mi Calm Calm - N/A   Clear
8:20 AM 38.1 °F - 21.6 °F 51% 29.59 in 10.0 mi Calm Calm - N/A   Clear
8:40 AM 38.5 °F 34.1 °F 22.8 °F 53% 29.60 in 10.0 mi South 5.8 mph - N/A   Clear
9:00 AM 39.2 °F 37.0 °F 25.3 °F 58% 29.61 in 10.0 mi SSW 3.5 mph - N/A   Clear
9:20 AM 39.7 °F 36.5 °F 26.2 °F 59% 29.60 in 10.0 mi South 4.6 mph - N/A   Clear
9:40 AM 40.1 °F 36.9 °F 26.4 °F 58% 29.59 in 10.0 mi SSW 4.6 mph - N/A   Clear
10:00 AM 41.0 °F 37.1 °F 26.6 °F 57% 29.59 in 10.0 mi South 5.8 mph - N/A   Clear
10:20 AM 41.5 °F 39.6 °F 27.1 °F 57% 29.59 in 10.0 mi South 3.5 mph - N/A   Clear
10:40 AM 42.6 °F 40.9 °F 27.0 °F 54% 29.60 in 10.0 mi SW 3.5 mph - N/A   Clear
11:00 AM 43.3 °F - 27.1 °F 53% 29.60 in 10.0 mi Calm Calm - N/A   Clear
11:20 AM 44.1 °F 41.5 °F 27.3 °F 52% 29.60 in 10.0 mi SSW 4.6 mph - N/A   Clear
11:40 AM 45.5 °F 42.5 °F 27.0 °F 48% 29.60 in 10.0 mi WSW 5.8 mph - N/A   Clear
12:00 PM 46.2 °F 45.0 °F 27.0 °F 47% 29.60 in 10.0 mi SSW 3.5 mph - N/A   Clear
12:20 PM 46.9 °F - 27.1 °F 46% 29.60 in 10.0 mi WSW 5.8 mph - N/A   Clear
12:45 PM 48.9 °F - 23.7 °F 37% 29.60 in 10.0 mi NW 8.1 mph - N/A   Clear
1:05 PM 48.6 °F - 23.7 °F 38% 29.59 in 10.0 mi WNW 6.9 mph - N/A   Clear
1:25 PM 49.5 °F - 23.5 °F 36% 29.60 in 10.0 mi WNW 5.8 mph - N/A   Clear
1:45 PM 49.6 °F - 23.4 °F 36% 29.61 in 10.0 mi NW 9.2 mph - N/A   Clear
2:00 PM 49.8 °F - 23.4 °F 36% 29.61 in 10.0 mi West 9.2 mph - N/A   Clear
2:25 PM 49.8 °F - 23.4 °F 36% 29.61 in 10.0 mi West 4.6 mph - N/A   Clear
2:45 PM 50.5 °F - 23.7 °F 35% 29.61 in 10.0 mi WNW 6.9 mph - N/A   Clear
3:05 PM 50.2 °F - 23.5 °F 35% 29.61 in 10.0 mi NW 3.5 mph - N/A   Clear
3:25 PM 50.9 °F - 22.6 °F 33% 29.62 in 10.0 mi Calm Calm - N/A   Clear
3:45 PM 50.4 °F - 23.0 °F 34% 29.63 in 10.0 mi NW 4.6 mph - N/A   Clear
4:05 PM 50.0 °F - 23.5 °F 36% 29.64 in 10.0 mi NW 3.5 mph - N/A   Clear
4:25 PM 50.0 °F - 22.5 °F 34% 29.65 in 10.0 mi NNW 3.5 mph - N/A   Clear
4:45 PM 49.5 °F - 23.7 °F 37% 29.66 in 10.0 mi North 4.6 mph - N/A   Clear
5:05 PM 49.3 °F - 23.2 °F 36% 29.67 in 10.0 mi North 3.5 mph - N/A   Clear
5:25 PM 48.2 °F - 23.7 °F 38% 29.68 in 10.0 mi Calm Calm - N/A   Clear
5:45 PM 43.3 °F - 28.8 °F 56% 29.69 in 10.0 mi Calm Calm - N/A   Clear
6:05 PM 39.4 °F - 30.6 °F 71% 29.71 in 10.0 mi Calm Calm - N/A   Clear
6:25 PM 36.9 °F - 31.3 °F 80% 29.72 in 10.0 mi Calm Calm - N/A   Clear
6:45 PM 36.0 °F - 30.9 °F 82% 29.72 in 10.0 mi Calm Calm - N/A   Clear
7:05 PM 35.8 °F - 31.8 °F 86% 29.71 in 10.0 mi Calm Calm - N/A   Clear
7:20 PM 34.9 °F - 31.1 °F 86% 29.72 in 10.0 mi Calm Calm - N/A   Clear
7:45 PM 33.4 °F - 30.2 °F 88% 29.73 in 10.0 mi Calm Calm - N/A   Clear
8:05 PM 32.5 °F - 30.4 °F 92% 29.73 in 10.0 mi Calm Calm - N/A   Clear
8:25 PM 33.1 °F - 30.4 °F 90% 29.73 in 10.0 mi Calm Calm - N/A   Clear
8:45 PM 32.0 °F - 30.0 °F 92% 29.73 in 10.0 mi Calm Calm - N/A   Clear
9:05 PM 32.0 °F - 30.2 °F 93% 29.73 in 10.0 mi Calm Calm - N/A   Clear
9:25 PM 31.6 °F - 30.2 °F 94% 29.71 in 10.0 mi Calm Calm - N/A   Clear
9:45 PM 34.7 °F 31.8 °F 30.0 °F 83% 29.71 in 10.0 mi North 3.5 mph - N/A   Clear
10:05 PM 33.1 °F - 30.0 °F 89% 29.72 in 10.0 mi Calm Calm - N/A   Clear
10:25 PM 32.4 °F - 30.2 °F 92% 29.73 in 10.0 mi Calm Calm - N/A   Clear
10:45 PM 32.7 °F - 30.9 °F 93% 29.74 in 10.0 mi Calm Calm - N/A   Clear
11:05 PM 32.9 °F - 31.1 °F 93% 29.74 in 10.0 mi Calm Calm - N/A   Clear
11:25 PM 34.2 °F 31.2 °F 31.1 °F 89% 29.74 in 10.0 mi North 3.5 mph - N/A   Scattered Clouds
11:45 PM 33.8 °F - 30.6 °F 88% 29.73 in 10.0 mi Calm Calm - N/A   Mostly Cloudy